Eastsound, WA
on Sunday, January 13, 2013

Sunday
Previous Day Next Day
Daily Summary
 ActualAverage (KBLI)Record (KBLI)
Temperature
Mean Temperature °F 39°F  
Max Temperature 35°F 45°F 64°F (1968)
Min Temperature 24°F 33°F 15°F (2007)
Degree Days
Heating Degree Days 36 26  
Month to date heating degree days 344  
Cooling Degree Days 0 0  
Month to date cooling degree days 0  
Year to date cooling degree days 0  
Moisture
Dew Point 26°F   
Average Humidity 84    
Maximum Humidity 100    
Minimum Humidity 70    
Precipitation
Precipitation 0.00 in 0.16 in 1.21 in (1996)
Month to date precipitation 1.98  
Year to date precipitation 1.98  
Wind
Wind Speed 0 mph   
Max Wind Speed 5 mph   
Max Gust Speed mph   
Visibility 10 miles   
Events     

Key: T is trace of precipitation, MM is missing value
Source: NWS Daily Summary
Time(PST)TemperatureDew PointHumidity Pressure Visibility Wind DirectionWind SpeedGust SpeedPrecipitationEvents Conditions
12:15 AM 28.4°F 23.0°F 80% 30.44 in 10.0 miles Calm Calm - N/A   Clear
12:35 AM 26.6°F 23.0°F 86% 30.44 in 10.0 miles Calm Calm - N/A   Clear
12:55 AM 26.6°F 23.0°F 86% 30.44 in 10.0 miles Calm Calm - N/A   Clear
1:15 AM 26.6°F 24.8°F 93% 30.44 in 10.0 miles Calm Calm - N/A   Clear
1:35 AM 24.8°F 23.0°F 93% 30.44 in 10.0 miles Calm Calm - N/A   Clear
2:15 AM 24.8°F 23.0°F 93% 30.45 in 10.0 miles Calm Calm - N/A   Clear
2:35 AM 24.8°F 24.8°F 100% 30.45 in 10.0 miles Calm Calm - N/A   Clear
2:55 AM 28.4°F 24.8°F 86% 30.44 in 10.0 miles Calm Calm - N/A   Clear
3:15 AM 26.6°F 24.8°F 93% 30.45 in 10.0 miles Calm Calm - N/A   Clear
3:35 AM 26.6°F 24.8°F 93% 30.44 in 10.0 miles Calm Calm - N/A   Clear
3:55 AM 26.6°F 24.8°F 93% 30.44 in 10.0 miles Calm Calm - N/A   Clear
4:15 AM 26.6°F 24.8°F 93% 30.44 in 10.0 miles Calm Calm - N/A   Mostly Cloudy
4:35 AM 26.6°F 24.8°F 93% 30.44 in 10.0 miles Calm Calm - N/A   Mostly Cloudy
4:55 AM 26.6°F 24.8°F 93% 30.44 in 10.0 miles Calm Calm - N/A   Clear
5:15 AM 26.6°F 24.8°F 93% 30.43 in 10.0 miles Calm Calm - N/A   Clear
5:35 AM 26.6°F 24.8°F 93% 30.44 in 10.0 miles Calm Calm - N/A   Partly Cloudy
5:55 AM 26.6°F 24.8°F 93% 30.44 in 10.0 miles Calm Calm - N/A   Scattered Clouds
6:15 AM 26.6°F 24.8°F 93% 30.44 in 10.0 miles Calm Calm - N/A   Scattered Clouds
6:35 AM 24.8°F 24.8°F 100% 30.44 in 10.0 miles Calm Calm - N/A   Partly Cloudy
6:55 AM 24.8°F 24.8°F 100% 30.45 in 10.0 miles Calm Calm - N/A   Clear
7:15 AM 24.8°F 24.8°F 100% 30.46 in 10.0 miles Calm Calm - N/A   Clear
7:35 AM 26.6°F 26.6°F 100% 30.45 in 10.0 miles Calm Calm - N/A   Mostly Cloudy
7:55 AM 24.8°F 24.8°F 100% 30.45 in 10.0 miles Calm Calm - N/A   Partly Cloudy
8:15 AM 24.8°F 24.8°F 100% 30.46 in 10.0 miles Calm Calm - N/A   Clear
8:35 AM 26.6°F 24.8°F 93% 30.46 in 8.0 miles Calm Calm - N/A   Partly Cloudy
8:55 AM 26.6°F 26.6°F 100% 30.47 in 8.0 miles Calm Calm - N/A   Mostly Cloudy
9:15 AM 26.6°F 26.6°F 100% 30.47 in 9.0 miles Calm Calm - N/A   Mostly Cloudy
10:15 AM 32.0°F 28.4°F 87% 30.47 in 10.0 miles Calm Calm - N/A   Clear
10:35 AM 32.0°F 26.6°F 80% 30.47 in 10.0 miles Calm Calm - N/A   Clear
10:55 AM 32.0°F 28.4°F 87% 30.46 in 10.0 miles Calm Calm - N/A   Clear
11:15 AM 33.8°F 28.4°F 81% 30.45 in 10.0 miles Calm Calm - N/A   Clear
11:35 AM 35.6°F 28.4°F 75% 30.46 in 10.0 miles Calm Calm - N/A   Clear
12:15 PM 35.6°F 26.6°F 70% 30.45 in 10.0 miles NE 4.6 mph - N/A   Mostly Cloudy
12:35 PM 35.6°F 26.6°F 70% 30.44 in 10.0 miles North - - N/A   Mostly Cloudy
12:55 PM 35.6°F 26.6°F 70% 30.43 in 10.0 miles Calm Calm - N/A   Mostly Cloudy
1:15 PM 35.6°F 26.6°F 70% 30.44 in 10.0 miles Calm Calm - N/A   Overcast
1:35 PM 35.6°F 26.6°F 70% 30.44 in 10.0 miles Calm Calm - N/A   Overcast
2:15 PM 35.6°F 26.6°F 70% 30.44 in 10.0 miles Calm Calm - N/A   Overcast
2:35 PM 35.6°F 26.6°F 70% 30.44 in 10.0 miles Calm Calm - N/A   Overcast
2:55 PM 35.6°F 26.6°F 70% 30.43 in 10.0 miles Calm Calm - N/A   Overcast
3:15 PM 35.6°F 26.6°F 70% 30.43 in 10.0 miles Calm Calm - N/A   Overcast
3:35 PM 35.6°F 26.6°F 70% 30.45 in 10.0 miles Calm Calm - N/A   Mostly Cloudy
3:55 PM 35.6°F 26.6°F 70% 30.45 in 10.0 miles South 3.5 mph - N/A   Mostly Cloudy
4:15 PM 35.6°F 28.4°F 75% 30.44 in 10.0 miles Calm Calm - N/A   Overcast
4:35 PM 33.8°F 28.4°F 81% 30.45 in 10.0 miles Calm Calm - N/A   Overcast
4:55 PM 33.8°F 26.6°F 75% 30.45 in 10.0 miles Calm Calm - N/A   Overcast
5:15 PM 33.8°F 28.4°F 81% 30.45 in 10.0 miles Calm Calm - N/A   Overcast
5:55 PM 33.8°F 28.4°F 81% 30.45 in 10.0 miles Calm Calm - N/A   Overcast
6:15 PM 33.8°F 28.4°F 81% 30.44 in 10.0 miles Calm Calm - N/A   Overcast
6:35 PM 33.8°F 28.4°F 81% 30.43 in 10.0 miles Calm Calm - N/A   Overcast
7:15 PM 33.8°F 28.4°F 81% 30.46 in 10.0 miles Calm Calm - N/A   Overcast
7:55 PM 33.8°F 28.4°F 81% 30.45 in 10.0 miles Calm Calm - N/A   Overcast
8:15 PM 33.8°F 28.4°F 81% 30.46 in 10.0 miles Calm Calm - N/A   Overcast
8:35 PM 33.8°F 28.4°F 81% 30.46 in 9.0 miles Calm Calm - N/A   Overcast
8:55 PM 33.8°F 28.4°F 81% 30.46 in 10.0 miles Calm Calm - N/A   Overcast
9:15 PM 33.8°F 28.4°F 81% 30.46 in 9.0 miles Calm Calm - N/A   Overcast
9:35 PM 35.6°F 28.4°F 75% 30.45 in 10.0 miles Calm Calm - N/A   Overcast
9:55 PM 35.6°F 30.2°F 81% 30.47 in 10.0 miles Calm Calm - N/A   Overcast
10:35 PM 35.6°F 28.4°F 75% 30.46 in 10.0 miles South 3.5 mph - N/A   Overcast
10:55 PM 35.6°F 28.4°F 75% 30.46 in 10.0 miles South 3.5 mph - N/A   Overcast
11:15 PM 35.6°F 30.2°F 81% 30.46 in 10.0 miles Calm Calm - N/A   Overcast
11:35 PM 35.6°F 28.4°F 75% 30.46 in 10.0 miles Calm Calm - N/A   Overcast
11:55 PM 35.6°F 28.4°F 75% 30.46 in 10.0 miles Calm Calm - N/A   Overcast
Moon Phase
Jan. 13 Jan. 18 Jan. 26 Feb. 03 Feb. 10
Sunrise:08:00 AM (PST) Moon Rise:08:47 AM (PST)1/13
Sunset:04:41 PM (PST) Moon Set:07:43 PM (PST)1/13

Copyright © 2014 The Weather Underground, Inc.